Location: Albert
(44.3172°N, 77.1347°W)
Time: 06:51:34
(UTC+00:00)

Tiangong - Visible Passes

Search period start: 18 October 2021 00:00
Search period end: 28 October 2021 00:00
Orbit: 382 x 385 km, 41.5° (Epoch: 17 October)

Date Brightness Start Highest point End Pass type
(mag) Time Alt. Az. Time Alt. Az. Time Alt. Az.
19 Oct 2.6 00:03:28 10° SW 00:05:32 26° S 00:05:32 26° S visible
19 Oct 2.8 23:03:52 10° SSW 23:06:19 21° SSE 23:08:21 12° ESE visible
20 Oct 3.9 00:39:42 10° WSW 00:40:32 16° WSW 00:40:32 16° WSW visible
20 Oct 1.8 23:39:44 10° WSW 23:42:42 38° SSE 23:43:16 35° SE visible
21 Oct 2.4 22:39:52 10° SW 22:42:41 29° SSE 22:45:29 10° E visible
22 Oct 2.6 00:16:07 10° WSW 00:18:07 32° SW 00:18:07 32° SW visible
22 Oct 1.7 23:16:02 10° WSW 23:19:05 46° S 23:20:45 22° ESE visible
23 Oct 4.5 00:52:40 10° W 00:52:56 12° W 00:52:56 12° W visible
23 Oct 1.6 23:52:28 10° W 23:55:33 48° S 23:55:33 48° S visible
24 Oct 1.6 22:52:17 10° WSW 22:55:23 50° S 22:58:08 12° ESE visible
25 Oct 3.7 00:29:02 10° W 00:30:19 20° WSW 00:30:19 20° WSW visible
25 Oct 1.9 23:28:45 10° W 23:31:46 41° S 23:32:55 28° SE visible
27 Oct 3.0 00:05:25 10° WSW 00:07:45 23° SSW 00:07:45 23° SSW visible
27 Oct 2.5 23:04:58 10° W 23:07:51 32° SSW 23:10:27 12° SE visible
